Dillon, MT

3:54 AM MDT on July 30, 2016 (GMT -0600)
Dillon

Weather History for KDLN - June, 2014

Change the Weather History Date:

Monday, June 2, 2014

  Actual Average Record
Temperature  
Mean Temperature 58 °F 54 °F  
Max Temperature 74 °F 68 °F 86 °F (1968)
Min Temperature 42 °F 41 °F 28 °F (1951)
Degree Days  
Heating Degree Days 7    
Month to date heating degree days 17  
Since 1 June heating degree days 17  
Since 1 July heating degree days 7779  
Cooling Degree Days 0    
Month to date cooling degree days 0  
Year to date cooling degree days 0  
Since 1 June cooling degree days 0  
Growing Degree Days 8 (Base 50)    
Moisture  
Dew Point 40 °F    
Average Humidity 56    
Maximum Humidity 89    
Minimum Humidity 23    
Precipitation  
Precipitation T in 0.08 in 0.85 in (1943)
Month to date precipitation 0.18 0.17  
Year to date precipitation 3.42 4.24  
Snow  
Snow 0.00 in - - ()
Snow Depth 0.00 in    
Sea Level Pressure  
Sea Level Pressure 29.90 in    
Wind  
Wind Speed 6 mph (South)    
Max Wind Speed 23 mph    
Max Gust Speed 29 mph    
Visibility 10 miles    
Events      
T = Trace of Precipitation, MM = Missing Value Source: NWS Daily Summary

Daily Weather History Graph

Daily Weather History Graph

Search for Another Location

Airport or City:

Trip Planner

Search our weather history database for the weather conditions in past years. The results will help you decide how hot, cold, wet, or windy it might be!

Date:

Astronomy

Jun. 02, 2014 Rise Set
Actual Time 5:45 AM MDT 9:11 PM MDT
Civil Twilight 5:08 AM MDT 9:48 PM MDT
Nautical Twilight 4:20 AM MDT 10:36 PM MDT
Astronomical Twilight 3:18 AM MDT 11:39 PM MDT
Moon 10:23 AM MDT (6/2) 12:01 AM MDT (6/2)
Length of Visible Light 16h 39m
Length of Day
15h 26m
Waxing Crescent, 22% of the Moon is Illuminated
Jun 2
Waxing Crescent
Jun 5
First Quarter
Jun 12
Full
Jun 19
Last Quarter
Jun 27
New

Hourly Weather History & Observations

Time (MDT) Temp. Windchill Dew Point Humidity Pressure Visibility Wind Dir Wind Speed Gust Speed Precip Events Conditions
12:53 AM 50.0 °F - 44.1 °F 80% 30.00 in 10.0 mi Calm Calm - N/A   Overcast
1:53 AM 48.0 °F - 44.1 °F 86% 30.00 in 10.0 mi SSW 6.9 mph - N/A   Mostly Cloudy
2:53 AM 46.9 °F - 43.0 °F 86% 29.99 in 10.0 mi South 4.6 mph - N/A   Mostly Cloudy
3:53 AM 46.0 °F 42.5 °F 41.0 °F 83% 29.99 in 10.0 mi SSW 6.9 mph - N/A   Clear
4:53 AM 44.1 °F 39.5 °F 41.0 °F 89% 30.00 in 10.0 mi South 8.1 mph - N/A   Clear
5:53 AM 43.0 °F 38.2 °F 39.9 °F 89% 30.00 in 10.0 mi SSW 8.1 mph - N/A   Scattered Clouds
6:53 AM 44.1 °F 39.5 °F 39.9 °F 85% 30.01 in 10.0 mi SSW 8.1 mph - N/A   Clear
7:53 AM 48.0 °F - 42.1 °F 80% 30.01 in 10.0 mi SW 10.4 mph - N/A   Clear
8:53 AM 52.0 °F - 44.1 °F 74% 30.00 in 10.0 mi SW 6.9 mph - N/A   Clear
9:53 AM 55.0 °F - 43.0 °F 64% 29.98 in 10.0 mi Calm Calm - N/A   Clear
12:53 PM 66.9 °F - 41.0 °F 39% 29.89 in 10.0 mi Calm Calm - N/A   Clear
1:53 PM 70.0 °F - 34.0 °F 27% 29.87 in 10.0 mi North - - N/A   Clear
2:53 PM 72.0 °F - 35.1 °F 26% 29.83 in 10.0 mi SSW 12.7 mph 17.3 mph N/A   Clear
3:53 PM 73.9 °F - 33.1 °F 22% 29.82 in 10.0 mi North - - N/A   Scattered Clouds
4:53 PM 70.0 °F - 34.0 °F 27% 29.82 in 10.0 mi Calm Calm - 0.00 in   Mostly Cloudy
5:53 PM 70.0 °F - 39.0 °F 32% 29.81 in 10.0 mi NE 3.5 mph - N/A   Clear
6:53 PM 73.0 °F - 35.1 °F 25% 29.78 in 10.0 mi East 5.8 mph - N/A   Clear
7:53 PM 69.1 °F - 42.1 °F 38% 29.77 in 10.0 mi East 6.9 mph - N/A   Clear
8:53 PM 61.0 °F - 43.0 °F 52% 29.78 in 10.0 mi ESE 10.4 mph - N/A   Clear
9:53 PM 59.0 °F - 39.9 °F 49% 29.79 in 10.0 mi ESE 12.7 mph - N/A   Clear
10:16 PM 59.0 °F - 42.1 °F 53% 29.92 in 10.0 mi SW 15.0 mph - N/A   Mostly Cloudy
10:53 PM 60.1 °F - 42.1 °F 51% 29.78 in 10.0 mi NNW 5.8 mph - N/A   Partly Cloudy
11:53 PM 57.0 °F - 45.0 °F 64% 29.78 in 10.0 mi NNW 11.5 mph - N/A   Overcast